CW9687 Weather Reports


Display with metric or nautical units.
time (UTC)temp
F
wind
direction
speed
MPH
gust
MPH
rain 1hr
in
rain 24hr
in
rain mn
in
humidity
%
barometer
mb
20260905234506 75 329 2.0 10.0 0.00 0.00 0.00 87 1013.1
20260905234004 76 315 5.0 10.0 0.00 0.00 0.00 86 1013.1
20260905233504 76 289 2.0 11.0 0.00 0.00 0.00 86 1013.1
20260905233003 76 269 3.0 11.0 0.00 0.00 0.00 85 1013.0
20260905232503 76 296 3.0 10.0 0.00 0.00 0.00 85 1013.0
20260905232003 76 293 4.0 10.0 0.00 0.00 0.00 85 1013.0
20260905231504 76 278 3.0 9.0 0.00 0.00 0.00 85 1013.1
20260905231002 76 286 3.0 9.0 0.00 0.00 0.00 85 1013.0
20260905230501 76 314 5.0 9.0 0.00 0.00 0.00 85 1013.1
20260905230107 76 306 3.0 10.0 0.00 0.00 0.00 85 1013.2
20260905225600 77 292 6.0 11.0 0.00 0.00 0.00 84 1013.3
20260905225500 77 296 4.0 11.0 0.00 0.00 0.00 85 1013.3
20260905225100 77 305 5.0 11.0 0.00 0.00 0.00 85 1013.2
20260905224701 77 298 5.0 11.0 0.00 0.00 0.00 85 1013.4
20260905224059 77 303 7.0 11.0 0.00 0.00 0.00 85 1013.4
20260905223559 77 290 2.0 9.0 0.00 0.00 0.00 85 1013.3
20260905223059 77 321 3.0 10.0 0.00 0.00 0.00 85 1013.4
20260905222559 77 312 3.0 11.0 0.00 0.00 0.00 85 1013.3
20260905222100 77 316 1.0 10.0 0.00 0.00 0.00 85 1013.4
20260905221614 77 330 4.0 12.0 0.00 0.00 0.00 85 1013.5
20260905221058 77 296 4.0 12.0 0.00 0.00 0.00 85 1013.5
20260905220557 78 279 8.0 12.0 0.00 0.00 0.00 85 1013.5
20260905220048 78 294 6.0 12.0 0.00 0.00 0.00 85 1013.5
20260905215548 77 312 3.0 10.0 0.00 0.00 0.00 85 1013.5
20260905215049 77 300 2.0 9.0 0.00 0.00 0.00 85 1013.5
20260905214553 77 285 6.0 11.0 0.00 0.00 0.00 85 1013.6
20260905214046 77 273 6.0 12.0 0.00 0.00 0.00 85 1013.6
20260905213545 77 312 6.0 12.0 0.00 0.00 0.00 85 1013.6
20260905213045 78 281 4.0 11.0 0.00 0.00 0.00 84 1013.6
20260905212548 78 272 5.0 11.0 0.00 0.00 0.00 84 1013.7
20260905212047 78 283 6.0 11.0 0.00 0.00 0.00 84 1013.8
20260905211543 78 314 2.0 11.0 0.00 0.00 0.00 84 1013.7
20260905211044 78 312 4.0 12.0 0.00 0.00 0.00 85 1013.7
20260905210545 78 291 6.0 12.0 0.00 0.00 0.00 85 1013.7
20260905210044 78 312 5.0 11.0 0.00 0.00 0.00 84 1014.0
20260905205541 78 304 6.0 11.0 0.00 0.00 0.00 85 1013.9
20260905205041 77 285 2.0 11.0 0.00 0.00 0.00 85 1014.0
20260905204641 77 322 4.0 11.0 0.00 0.00 0.00 85 1014.0
20260905204040 77 308 5.0 10.0 0.00 0.00 0.00 85 1014.2
20260905203540 77 306 4.0 9.0 0.00 0.00 0.00 85 1014.3
20260905203040 77 291 4.0 12.0 0.00 0.00 0.00 85 1014.2
20260905202539 77 284 5.0 12.0 0.00 0.00 0.00 85 1014.3
20260905202041 77 295 2.0 12.0 0.00 0.00 0.00 85 1014.4
20260905201539 77 302 4.0 13.0 0.00 0.00 0.00 85 1014.4
20260905201036 77 315 4.0 13.0 0.00 0.00 0.00 85 1014.4
20260905200540 76 310 2.0 9.0 0.00 0.00 0.00 85 1014.5
20260905200038 76 310 1.0 9.0 0.00 0.00 0.00 85 1014.5
20260905195535 76 310 5.0 9.0 0.00 0.00 0.00 85 1014.5
20260905195034 76 287 6.0 9.0 0.00 0.00 0.00 84 1014.6
20260905194534 76 298 3.0 10.0 0.00 0.00 0.00 84 1014.6
20260905194033 76 283 6.0 10.0 0.00 0.00 0.00 83 1014.6
20260905193531 76 291 3.0 10.0 0.00 0.00 0.00 83 1014.5
20260905193034 76 311 5.0 11.0 0.00 0.00 0.00 82 1014.7
20260905192532 75 306 7.0 11.0 0.00 0.00 0.00 82 1014.6
20260905192027 75 307 6.0 11.0 0.00 0.00 0.00 82 1014.5
20260905191528 75 285 5.0 10.0 0.00 0.00 0.00 82 1014.6
20260905191025 75 278 3.0 11.0 0.00 0.00 0.00 82 1014.6
20260905190527 75 277 6.0 11.0 0.00 0.00 0.00 81 1014.6
20260905190006 75 313 3.0 11.0 0.00 0.00 0.00 81 1014.7
20260905185500 75 316 4.0 11.0 0.00 0.00 0.00 81 1014.8
20260905185101 74 315 3.0 10.0 0.00 0.00 0.00 81 1014.8
20260905184601 74 271 5.0 10.0 0.00 0.00 0.00 81 1014.8
20260905184102 74 291 5.0 11.0 0.00 0.00 0.00 81 1014.9
20260905183557 73 316 3.0 8.0 0.00 0.00 0.00 81 1014.9
20260905183156 74 269 1.0 9.0 0.00 0.00 0.00 81 1014.9
20260905182656 73 284 4.0 10.0 0.00 0.00 0.00 80 1014.8
20260905182054 73 321 6.0 10.0 0.00 0.00 0.00 80 1014.8
20260905181552 73 305 4.0 9.0 0.00 0.00 0.00 80 1014.8
20260905181017 74 289 5.0 11.0 0.00 0.00 0.00 79 1014.7
20260905180517 74 289 6.0 11.0 0.00 0.00 0.00 79 1014.8
20260905180014 73 356 0.0 10.0 0.00 0.00 0.00 79 1014.8
20260905175513 73 298 3.0 10.0 0.00 0.00 0.00 79 1014.7
20260905175011 73 318 5.0 10.0 0.00 0.00 0.00 79 1014.7
20260905174512 73 287 4.0 9.0 0.00 0.00 0.00 79 1014.7
20260905174010 72 312 2.0 10.0 0.00 0.00 0.00 78 1014.6
20260905173508 72 256 1.0 9.0 0.00 0.00 0.00 78 1014.6
20260905173006 72 291 4.0 8.0 0.00 0.00 0.00 78 1014.7
20260905172505 72 312 2.0 5.0 0.00 0.00 0.00 78 1014.7
20260905172003 71 251 2.0 8.0 0.00 0.00 0.00 77 1014.6
20260905171500 71 285 2.0 8.0 0.00 0.00 0.00 77 1014.6
20260905171059 71 3 2.0 6.0 0.00 0.00 0.00 77 1014.5
20260905170558 70 345 1.0 7.0 0.00 0.00 0.00 77 1014.4
20260905165555 70 350 0.0 5.0 0.00 0.00 0.00 77 1014.5
20260905165055 69 350 0.0 6.0 0.00 0.00 0.00 77 1014.5
20260905164557 69 359 0.0 6.0 0.00 0.00 0.00 76 1014.5
20260905164052 68 359 0.0 6.0 0.00 0.00 0.00 76 1014.4
20260905163549 68 7 0.0 3.0 0.00 0.00 0.00 76 1014.3
20260905163048 67 5 1.0 3.0 0.00 0.00 0.00 76 1014.4
20260905162549 67 345 0.0 3.0 0.00 0.00 0.00 76 1014.4
20260905162045 66 345 0.0 5.0 0.00 0.00 0.00 76 1014.3
20260905161545 66 345 2.0 5.0 0.00 0.00 0.00 76 1014.3
20260905161042 66 345 2.0 5.0 0.00 0.00 0.00 76 1014.4
20260905160540 66 347 0.0 3.0 0.00 0.00 0.00 76 1014.5
20260905160052 65 293 0.0 3.0 0.00 0.00 0.00 77 1014.4
20260905155537 65 293 0.0 3.0 0.00 0.00 0.00 77 1014.4
20260905155035 64 291 0.0 7.0 0.00 0.00 0.00 77 1014.5
20260905154540 64 324 0.0 4.0 0.00 0.00 0.00 77 1014.4
20260905154037 64 286 1.0 4.0 0.00 0.00 0.00 76 1014.4
20260905153532 64 163 0.0 0.0 0.00 0.00 0.00 77 1014.3
20260905153035 63 162 0.0 0.0 0.00 0.00 0.00 77 1014.3
20260905152529 63 162 0.0 0.0 0.00 0.00 0.00 78 1014.3
20260905152028 62 162 0.0 0.0 0.00 0.00 0.00 78 1014.3
20260905151527 61 162 0.0 3.0 0.00 0.00 0.00 78 1014.3
20260905151027 61 162 0.0 3.0 0.00 0.00 0.00 78 1014.2
20260905150526 61 127 0.0 0.0 0.00 0.00 0.00 79 1014.1
20260905150026 61 126 0.0 0.0 0.00 0.00 0.00 79 1014.1
20260905145526 60 126 0.0 0.0 0.00 0.00 0.00 80 1014.1
20260905145025 60 126 0.0 0.0 0.00 0.00 0.00 80 1014.1
20260905144528 59 126 0.0 0.0 0.00 0.00 0.00 80 1013.9
20260905144022 59 116 0.0 0.0 0.00 0.00 0.00 80 1013.9
20260905143521 59 116 0.0 0.0 0.00 0.00 0.00 80 1013.8
20260905143022 58 116 0.0 0.0 0.00 0.00 0.00 80 1013.9
20260905142524 58 116 0.0 0.0 0.00 0.00 0.00 80 1013.9
20260905142021 58 116 0.0 0.0 0.00 0.00 0.00 80 1013.7
20260905141519 58 116 0.0 0.0 0.00 0.00 0.00 80 1013.6
20260905141020 57 116 0.0 0.0 0.00 0.00 0.00 80 1013.6
20260905140519 57 116 0.0 0.0 0.00 0.00 0.00 80 1013.4
20260905140015 57 116 0.0 1.0 0.00 0.00 0.00 80 1013.4
20260905135505 57 116 0.0 1.0 0.00 0.00 0.00 80 1013.3
20260905135004 58 141 0.0 0.0 0.00 0.00 0.00 80 1013.3
20260905134503 58 141 0.0 0.0 0.00 0.00 0.00 80 1013.3
20260905134003 58 141 0.0 0.0 0.00 0.00 0.00 80 1013.3
20260905133502 58 141 0.0 0.0 0.00 0.00 0.00 80 1013.3
20260905133004 58 141 0.0 0.0 0.00 0.00 0.00 80 1013.2
20260905132501 58 141 0.0 0.0 0.00 0.00 0.00 80 1013.2
20260905132001 58 141 0.0 1.0 0.00 0.00 0.00 80 1013.3
20260905131502 58 141 0.0 2.0 0.00 0.00 0.00 80 1013.3
20260905131100 58 141 0.0 2.0 0.00 0.00 0.00 80 1013.2
20260905130600 58 141 0.0 0.0 0.00 0.00 0.00 80 1013.2
20260905130100 58 141 0.0 0.0 0.00 0.00 0.00 80 1013.3
20260905125559 58 141 0.0 0.0 0.00 0.00 0.00 80 1013.3
20260905125059 58 141 0.0 0.0 0.00 0.00 0.00 80 1013.1
20260905124600 58 141 0.0 0.0 0.00 0.00 0.00 80 1013.2
20260905124057 59 141 0.0 0.0 0.00 0.00 0.00 80 1013.2
20260905123557 59 141 0.0 0.0 0.00 0.00 0.00 80 1013.3
20260905123104 59 141 0.0 0.0 0.00 0.00 0.00 80 1013.3
20260905122557 59 141 0.0 0.0 0.00 0.00 0.00 80 1013.3
20260905122158 59 141 0.0 0.0 0.00 0.00 0.00 80 1013.2
20260905121655 59 141 0.0 1.0 0.00 0.00 0.00 80 1013.2
20260905121058 59 141 0.0 2.0 0.00 0.00 0.00 80 1013.3
20260905120553 59 141 0.0 2.0 0.00 0.00 0.00 80 1013.2
20260905120106 59 141 0.0 2.0 0.00 0.00 0.00 80 1013.2
20260905115553 59 141 0.0 2.0 0.00 0.00 0.00 80 1013.2
20260905115054 59 141 0.0 2.0 0.00 0.00 0.00 80 1013.3
20260905114606 59 141 0.0 2.0 0.00 0.00 0.00 80 1013.2
20260905114052 59 141 0.0 2.0 0.00 0.00 0.00 80 1013.3
20260905113552 59 141 0.0 1.0 0.00 0.00 0.00 80 1013.2
20260905113057 59 141 0.0 1.0 0.00 0.00 0.00 80 1013.2
20260905112551 59 141 0.0 1.0 0.00 0.00 0.00 80 1013.2
20260905112051 59 141 0.0 0.0 0.00 0.00 0.00 80 1013.1
20260905111639 60 141 0.0 0.0 0.00 0.00 0.00 80 1013.2
20260905111049 60 141 0.0 2.0 0.00 0.00 0.00 80 1013.3
20260905110548 60 141 0.0 3.0 0.00 0.00 0.00 80 1013.2
20260905110049 60 243 0.0 3.0 0.00 0.00 0.00 80 1013.3
20260905105548 60 250 0.0 1.0 0.00 0.00 0.00 80 1013.4
20260905105047 60 250 0.0 1.0 0.00 0.00 0.00 80 1013.5
20260905104548 60 250 0.0 1.0 0.00 0.00 0.00 80 1013.5
20260905104047 60 250 0.0 1.0 0.00 0.00 0.00 80 1013.5
20260905103548 60 250 0.0 1.0 0.00 0.00 0.00 80 1013.6
20260905103047 60 251 0.0 0.0 0.00 0.00 0.00 80 1013.6
20260905102549 60 251 0.0 0.0 0.00 0.00 0.00 80 1013.7
20260905102046 60 251 0.0 0.0 0.00 0.00 0.00 80 1013.7
20260905101546 60 251 0.0 0.0 0.00 0.00 0.00 79 1013.7
20260905101044 60 251 0.0 0.0 0.00 0.00 0.00 79 1013.7
20260905100544 60 251 0.0 0.0 0.00 0.00 0.00 79 1013.8
20260905100043 60 251 0.0 0.0 0.00 0.00 0.00 79 1013.9
20260905095543 60 251 0.0 0.0 0.00 0.00 0.00 79 1013.9
20260905095043 60 251 0.0 0.0 0.00 0.00 0.00 79 1013.9
20260905094543 60 251 0.0 0.0 0.00 0.00 0.00 79 1013.9
20260905094045 60 251 0.0 0.0 0.00 0.00 0.00 79 1013.9
20260905093542 60 251 0.0 0.0 0.00 0.00 0.00 79 1013.9
20260905093047 60 251 0.0 0.0 0.00 0.00 0.00 79 1014.0
20260905092541 61 251 0.0 0.0 0.00 0.00 0.00 79 1014.0
20260905092040 61 251 0.0 0.0 0.00 0.00 0.00 79 1014.0
20260905091540 61 251 0.0 0.0 0.00 0.00 0.00 79 1014.0
20260905091039 61 251 0.0 0.0 0.00 0.00 0.00 79 1014.0
20260905090541 61 251 0.0 0.0 0.00 0.00 0.00 79 1014.1
20260905090038 61 251 0.0 0.0 0.00 0.00 0.00 79 1014.1
20260905085537 61 251 0.0 0.0 0.00 0.00 0.00 79 1014.2
20260905085036 61 251 0.0 0.0 0.00 0.00 0.00 79 1014.1
20260905084538 61 251 0.0 0.0 0.00 0.00 0.00 79 1014.2
20260905084037 61 251 0.0 0.0 0.00 0.00 0.00 79 1014.2
20260905083536 61 251 0.0 0.0 0.00 0.00 0.00 79 1014.4
20260905083036 61 251 0.0 0.0 0.00 0.00 0.00 79 1014.4
20260905082536 61 251 0.0 0.0 0.00 0.00 0.00 79 1014.3
20260905082035 61 251 0.0 1.0 0.00 0.00 0.00 79 1014.4
20260905081535 61 250 0.0 0.0 0.00 0.00 0.00 79 1014.4
20260905081034 61 250 0.0 0.0 0.00 0.00 0.00 79 1014.3
20260905080533 61 250 0.0 0.0 0.00 0.00 0.00 79 1014.4
20260905080035 61 250 0.0 0.0 0.00 0.00 0.00 79 1014.4
20260905075533 62 250 0.0 0.0 0.00 0.00 0.00 80 1014.5
20260905075032 62 250 0.0 0.0 0.00 0.00 0.00 80 1014.4
20260905074531 62 250 0.0 0.0 0.00 0.00 0.00 80 1014.5
20260905074032 62 250 0.0 0.0 0.00 0.00 0.00 80 1014.4
20260905073530 62 250 0.0 0.0 0.00 0.00 0.00 80 1014.5
20260905073037 62 250 0.0 0.0 0.00 0.00 0.00 80 1014.5
20260905072529 62 250 0.0 0.0 0.00 0.00 0.00 80 1014.3
20260905072028 62 250 0.0 0.0 0.00 0.00 0.00 80 1014.3
20260905071529 62 250 0.0 0.0 0.00 0.00 0.00 80 1014.2
20260905071028 62 250 0.0 0.0 0.00 0.00 0.00 80 1014.3
20260905070532 62 250 0.0 0.0 0.00 0.00 0.00 80 1014.1
20260905070044 62 250 0.0 0.0 0.00 0.00 0.00 80 1014.1
20260905065525 62 250 0.0 0.0 0.00 0.00 0.00 80 1014.1
20260905065026 62 250 0.0 0.0 0.00 0.00 0.00 80 1014.1
20260905064538 62 250 0.0 1.0 0.00 0.00 0.00 80 1014.1
20260905064027 62 250 0.0 1.0 0.00 0.00 0.00 80 1014.1
20260905063526 62 250 0.0 0.0 0.00 0.00 0.00 80 1014.1
20260905063025 62 250 0.0 0.0 0.00 0.00 0.00 80 1014.1
20260905062526 62 250 0.0 0.0 0.00 0.00 0.00 80 1014.2
20260905062025 62 250 0.0 0.0 0.00 0.00 0.00 80 1014.2
20260905061525 62 250 0.0 0.0 0.00 0.00 0.00 80 1014.3
20260905061024 62 250 0.0 0.0 0.00 0.00 0.00 80 1014.3
20260905060523 62 250 0.0 0.0 0.00 0.00 0.00 80 1014.3
20260905060024 63 250 0.0 0.0 0.00 0.00 0.00 80 1014.3
20260905055522 63 250 0.0 0.0 0.00 0.00 0.00 80 1014.4
20260905055027 63 250 0.0 0.0 0.00 0.00 0.00 79 1014.3
20260905054533 63 250 0.0 0.0 0.00 0.00 0.00 80 1014.3
20260905054028 63 250 0.0 0.0 0.00 0.00 0.00 80 1014.3
20260905053523 63 250 0.0 0.0 0.00 0.00 0.00 80 1014.3
20260905053022 63 250 0.0 0.0 0.00 0.00 0.00 80 1014.4
20260905052523 63 250 0.0 0.0 0.00 0.00 0.00 80 1014.4
20260905052022 63 250 0.0 0.0 0.00 0.00 0.00 80 1014.4
20260905051533 63 250 0.0 0.0 0.00 0.00 0.00 80 1014.5
20260905051020 63 250 0.0 0.0 0.00 0.00 0.00 80 1014.4
20260905050522 63 250 0.0 0.0 0.00 0.00 0.00 80 1014.3
20260905050014 63 250 0.0 0.0 0.00 0.00 0.00 80 1014.3
20260905045514 63 250 0.0 0.0 0.00 0.00 0.00 80 1014.2
20260905045013 63 250 0.0 0.0 0.00 0.00 0.00 80 1014.3
20260905044512 63 250 0.0 0.0 0.00 0.00 0.00 80 1014.2
20260905044012 63 250 0.0 0.0 0.00 0.00 0.00 80 1014.2
20260905043513 63 250 0.0 0.0 0.00 0.00 0.00 80 1014.1
20260905043012 63 250 0.0 0.0 0.00 0.00 0.00 80 1014.1
20260905042512 63 250 0.0 0.0 0.00 0.00 0.00 80 1014.1
20260905042012 63 250 0.0 0.0 0.00 0.00 0.00 80 1014.1
20260905041512 63 250 0.0 0.0 0.00 0.00 0.00 80 1014.1
20260905041012 63 250 0.0 0.0 0.00 0.00 0.00 80 1014.1
20260905040511 63 250 0.0 1.0 0.00 0.00 0.00 80 1014.0
20260905040049 63 250 0.0 3.0 0.00 0.00 0.00 80 1014.0
20260905035548 63 250 0.0 3.0 0.00 0.00 0.00 80 1014.1
20260905035051 63 251 0.0 3.0 0.00 0.00 0.00 80 1013.9
20260905034549 63 252 0.0 3.0 0.00 0.00 0.00 81 1013.9
20260905034054 63 252 0.0 2.0 0.00 0.00 0.00 80 1013.9
20260905033548 63 251 0.0 3.0 0.00 0.00 0.00 81 1014.1
20260905033048 63 251 0.0 4.0 0.00 0.00 0.00 81 1013.7
20260905032549 63 250 0.0 4.0 0.00 0.00 0.00 81 1013.6
20260905032048 63 251 0.0 3.0 0.00 0.00 0.00 81 1013.6
20260905031548 63 249 0.0 3.0 0.00 0.00 0.00 81 1013.6
20260905031047 63 249 0.0 3.0 0.00 0.00 0.00 81 1013.4
20260905030547 63 252 0.0 3.0 0.00 0.00 0.00 81 1013.5
20260905030041 64 252 0.0 2.0 0.00 0.00 0.00 81 1013.3
20260905025540 64 252 0.0 2.0 0.00 0.00 0.00 81 1013.3
20260905025041 64 291 0.0 2.0 0.00 0.00 0.00 81 1013.3
20260905024548 64 291 0.0 3.0 0.00 0.00 0.00 81 1013.3
20260905024040 64 291 0.0 6.0 0.00 0.00 0.00 81 1013.3
20260905023541 64 291 0.0 4.0 0.00 0.00 0.00 81 1013.2
20260905023040 64 296 0.0 4.0 0.00 0.00 0.00 81 1013.1
20260905022540 64 298 1.0 6.0 0.00 0.00 0.00 82 1013.3
20260905022040 65 298 3.0 6.0 0.00 0.00 0.00 82 1013.2
20260905021543 65 277 1.0 7.0 0.00 0.00 0.00 82 1013.2
20260905021039 65 283 2.0 7.0 0.00 0.00 0.00 82 1013.2
20260905020539 65 293 0.0 4.0 0.00 0.00 0.00 82 1013.3
20260905020030 65 285 2.0 9.0 0.00 0.00 0.00 82 1013.3
20260905015529 65 301 3.0 9.0 0.00 0.00 0.00 82 1013.3
20260905015030 65 291 3.0 6.0 0.00 0.00 0.00 82 1013.3
20260905014535 66 272 3.0 7.0 0.00 0.00 0.00 82 1013.3
20260905014029 66 310 3.0 11.0 0.00 0.00 0.00 82 1013.3
20260905013531 66 277 5.0 11.0 0.00 0.00 0.00 83 1013.3
20260905013028 66 283 2.0 9.0 0.00 0.00 0.00 83 1013.3
20260905012528 66 275 2.0 12.0 0.00 0.00 0.00 83 1013.3
20260905012028 67 294 3.0 12.0 0.00 0.00 0.00 83 1013.2
20260905011528 67 307 5.0 10.0 0.00 0.00 0.00 83 1013.2
20260905011027 67 301 2.0 10.0 0.00 0.00 0.00 84 1013.2
20260905010527 67 276 5.0 9.0 0.00 0.00 0.00 83 1013.3
20260905010030 68 307 1.0 10.0 0.00 0.00 0.00 84 1013.2
20260905005527 68 268 2.0 11.0 0.00 0.00 0.00 84 1013.3
20260905005027 68 308 3.0 11.0 0.00 0.00 0.00 84 1013.2
20260905004530 68 286 3.0 11.0 0.00 0.00 0.00 84 1013.1
20260905004025 69 278 5.0 10.0 0.00 0.00 0.00 84 1013.2
20260905003528 69 314 5.0 11.0 0.00 0.00 0.00 84 1013.2
20260905003033 69 316 5.0 11.0 0.00 0.00 0.00 85 1013.2
20260905002525 69 195 6.0 10.0 0.00 0.00 0.00 84 1013.2
20260905002024 70 296 5.0 10.0 0.00 0.00 0.00 85 1013.2
20260905001524 70 274 4.0 12.0 0.00 0.00 0.00 85 1013.2
20260905001023 70 279 3.0 12.0 0.00 0.00 0.00 85 1013.3
20260905000524 70 310 5.0 14.0 0.00 0.00 0.00 85 1013.1
20260905000023 71 279 7.0 14.0 0.00 0.00 0.00 85 1013.1
20260904235522 71 291 6.0 12.0 0.00 0.00 0.00 85 1013.1
20260904235022 72 294 6.0 12.0 0.00 0.00 0.00 85 1013.1